map of VDC home
Great Circle Mapper logo
VDC - Airport
Location
City:  Vitoria da Conquista, Bahia, Brazil
ICAO / IATA:SBQV / VDC

Details
Type:Airport (Aerodrome, Airfield)
Latitude:1451'46"S (-14.862760)
Longitude:4051'47"W (-40.863105)
Datum:WGS 1984
Elevation:2998 ft (914 m)
Runways:1
Longest:5823 × 98 ft (1775 × 30 m), paved

Time
Time Zone:UTC-3
Local Time:

Weather
METAR:SBQV 210100Z 09006KT 9999 FEW013 18/15 Q1026

Related Locations
Nearby:
Farthest:ULI: 12094 mi / 19464 km
Falalop Island, Ulithi Atoll, YAP, FM

Find:

   beyond  
but within

Other Information
Maps:
NOTAMs:
Links:
Sources:

  
flag of Brazil
flag of Bahia
  

Sectional Chart

Flight Planning
at skyvector.com

Satellite Image

Google Maps Satellite View

 

Copyright © 2004-2014 Karl L. Swartz. All rights reserved.
The Great Circle Mapper name and logo are trademarks of the Great Circle Mapper.
All other trademarks mentioned herein belong to their respective owners.
Please see credits for attibutions and further copyright information.

  Follow gcmap on Facebook Follow gcmap on Twitter

hCard Microformat

Geo Microformat